EW6780 Weather Reports


time (UTC)temp
C
wind
direction
speed
KPH
gust
KPH
rain 1hr
cm
rain 24hr
cm
rain mn
cm
humidity
%
barometer
mb
20260506162506 19 237 0.0 9.7 0.03 0.03 0.00 75 1008.8
20260506162005 20 277 0.0 3.2 0.00 0.00 0.00 73 1008.8
20260506161507 20 264 0.0 9.7 0.00 0.00 0.00 70 1008.8
20260506161005 20 273 4.8 12.9 0.00 0.00 0.00 68 1009.0
20260506160508 20 200 1.6 6.4 0.00 0.00 0.00 67 1009.0
20260506160008 21 122 0.0 8.0 0.00 0.00 0.00 65 1009.0
20260506155507 21 119 1.6 14.5 0.00 0.00 0.00 64 1008.9
20260506155007 21 276 1.6 17.7 0.00 0.00 0.00 63 1009.1
20260506154507 21 133 1.6 16.1 0.00 0.00 0.00 63 1009.0
20260506154005 21 154 1.6 17.7 0.00 0.00 0.00 64 1008.9
20260506153507 21 126 0.0 11.3 0.00 0.00 0.00 64 1008.8
20260506153008 21 272 0.0 14.5 0.00 0.00 0.00 65 1008.8
20260506152504 21 69 0.0 4.8 0.00 0.00 0.00 65 1008.8
20260506152007 21 306 3.2 14.5 0.00 0.00 0.00 64 1008.8
20260506151508 21 118 0.0 11.3 0.00 0.00 0.00 64 1009.1
20260506151011 21 133 1.6 14.5 0.00 0.00 0.00 62 1009.1
20260506150510 21 160 0.0 11.3 0.00 0.00 0.00 62 1009.1
20260506150010 21 289 3.2 14.5 0.00 0.00 0.00 62 1009.0
20260506145505 22 288 0.0 14.5 0.00 0.00 0.00 62 1009.1
20260506145008 21 265 3.2 19.3 0.00 0.00 0.00 63 1009.0
20260506144507 21 291 1.6 9.7 0.00 0.00 0.00 64 1008.9
20260506144004 21 170 9.7 14.5 0.00 0.00 0.00 64 1009.2
20260506143507 21 168 1.6 16.1 0.00 0.00 0.00 65 1009.0
20260506143008 21 275 0.0 11.3 0.00 0.00 0.00 66 1008.9
20260506142504 21 293 1.6 12.9 0.00 0.00 0.00 65 1009.0
20260506142006 21 249 1.6 4.8 0.00 0.00 0.00 66 1009.0
20260506141511 21 112 0.0 14.5 0.00 0.00 0.00 66 1009.0
20260506141004 21 133 3.2 14.5 0.00 0.00 0.00 65 1009.0
20260506140505 21 227 0.0 17.7 0.00 0.00 0.00 65 1009.0
20260506140011 21 270 0.0 17.7 0.00 0.00 0.00 66 1009.1
20260506135507 20 131 0.0 8.0 0.00 0.00 0.00 67 1009.1
20260506135005 20 293 0.0 8.0 0.00 0.00 0.00 66 1009.1
20260506134504 20 137 0.0 17.7 0.00 0.00 0.00 66 1009.1
20260506134011 20 274 3.2 14.5 0.00 0.00 0.00 66 1009.2
20260506133505 20 208 0.0 12.9 0.00 0.00 0.00 67 1009.3
20260506133004 20 127 1.6 8.0 0.00 0.00 0.00 67 1009.2
20260506132507 20 166 0.0 11.3 0.00 0.00 0.00 67 1009.1
20260506132005 20 200 1.6 11.3 0.00 0.00 0.00 67 1009.3
20260506131507 20 115 11.3 16.1 0.00 0.00 0.00 67 1009.2
20260506131004 20 154 3.2 11.3 0.00 0.00 0.00 68 1009.0
20260506130507 20 181 11.3 11.3 0.00 0.00 0.00 68 1009.0
20260506130008 20 114 1.6 9.7 0.00 0.00 0.00 69 1008.9
20260506125506 20 142 1.6 8.0 0.00 0.00 0.00 69 1008.9
20260506125008 20 266 1.6 17.7 0.00 0.00 0.00 69 1009.0
20260506124505 20 106 0.0 8.0 0.00 0.00 0.00 70 1009.0
20260506124006 19 140 0.0 11.3 0.00 0.00 0.00 72 1009.0
20260506123509 19 195 6.4 6.4 0.00 0.00 0.00 72 1009.0
20260506123010 18 142 0.0 11.3 0.00 0.00 0.00 72 1009.1
20260506122504 18 311 0.0 9.7 0.00 0.00 0.00 72 1009.1
20260506122004 18 247 0.0 8.0 0.00 0.00 0.00 72 1009.2
20260506121506 18 293 3.2 14.5 0.00 0.00 0.00 72 1009.3
20260506121010 19 253 3.2 11.3 0.00 0.00 0.00 72 1009.2
20260506120504 19 225 0.0 8.0 0.00 0.00 0.00 72 1009.4
20260506120007 19 267 0.0 9.7 0.00 0.00 0.00 73 1009.4
20260506115504 18 245 0.0 6.4 0.00 0.00 0.00 73 1009.4
20260506115006 18 138 0.0 16.1 0.00 0.00 0.00 74 1009.4
20260506114508 18 284 3.2 12.9 0.00 0.00 0.00 75 1009.3
20260506114005 18 276 4.8 6.4 0.00 0.00 0.00 75 1009.3
20260506113505 18 127 3.2 9.7 0.00 0.00 0.00 75 1009.3
20260506113009 18 231 1.6 16.1 0.00 0.00 0.00 75 1009.6
20260506112505 18 177 1.6 8.0 0.00 0.00 0.00 76 1009.6
20260506112012 18 270 0.0 3.2 0.00 0.00 0.00 77 1009.5
20260506111508 18 122 0.0 4.8 0.00 0.00 0.00 77 1009.4
20260506111010 18 323 3.2 12.9 0.00 0.00 0.00 77 1009.4
20260506110506 17 96 4.8 8.0 0.00 0.00 0.00 78 1009.3
20260506110010 17 172 1.6 9.7 0.00 0.00 0.00 78 1009.3
20260506105507 17 134 4.8 8.0 0.00 0.00 0.00 78 1009.2
20260506105006 17 168 0.0 12.9 0.00 0.00 0.00 78 1009.3
20260506104510 17 200 0.0 6.4 0.00 0.00 0.00 78 1009.3
20260506104005 17 152 3.2 4.8 0.00 0.00 0.00 78 1009.3
20260506103505 17 192 0.0 8.0 0.00 0.00 0.00 78 1009.3
20260506103004 17 272 0.0 4.8 0.00 0.00 0.00 78 1009.3
20260506102505 17 132 0.0 4.8 0.00 0.00 0.00 78 1009.3
20260506102011 17 173 0.0 9.7 0.00 0.00 0.00 78 1009.2
20260506101504 17 212 0.0 14.5 0.00 0.00 0.00 79 1009.1
20260506101007 17 287 0.0 8.0 0.00 0.00 0.00 79 1009.1
20260506100504 17 267 3.2 9.7 0.00 0.00 0.00 79 1009.0
20260506100005 17 131 0.0 8.0 0.00 0.00 0.00 79 1009.1
20260506095506 17 156 0.0 8.0 0.00 0.00 0.00 79 1009.0
20260506095004 17 249 0.0 6.4 0.00 0.00 0.00 79 1009.0
20260506094504 17 129 0.0 9.7 0.00 0.00 0.00 79 1008.9
20260506094004 17 102 0.0 6.4 0.00 0.00 0.00 80 1008.9
20260506093504 17 128 1.6 6.4 0.00 0.00 0.00 80 1009.1
20260506093005 17 122 1.6 11.3 0.00 0.00 0.00 80 1009.1
20260506092507 17 155 4.8 11.3 0.00 0.00 0.00 80 1009.1
20260506092005 17 155 0.0 4.8 0.00 0.00 0.00 80 1009.2
20260506091507 17 177 0.0 4.8 0.00 0.00 0.00 80 1009.1
20260506091004 17 263 3.2 4.8 0.00 0.00 0.00 79 1009.1
20260506090504 17 154 0.0 4.8 0.00 0.00 0.00 79 1009.2
20260506090007 17 60 0.0 4.8 0.00 0.00 0.00 79 1009.2
20260506085510 17 107 0.0 4.8 0.00 0.00 0.00 79 1009.3
20260506085007 17 286 0.0 6.4 0.00 0.00 0.00 79 1009.3
20260506084504 17 193 0.0 8.0 0.00 0.00 0.00 79 1009.3
20260506084007 17 310 0.0 9.7 0.00 0.00 0.00 78 1009.3
20260506083510 17 133 0.0 6.4 0.00 0.00 0.00 78 1009.2
20260506083004 17 128 0.0 6.4 0.00 0.00 0.00 78 1009.3
20260506082505 17 114 0.0 6.4 0.00 0.00 0.00 78 1009.3
20260506082004 17 143 0.0 6.4 0.00 0.00 0.00 78 1009.4
20260506081504 17 350 0.0 8.0 0.00 0.00 0.00 77 1009.4
20260506081007 17 192 0.0 9.7 0.00 0.00 0.00 77 1009.3
20260506080507 18 159 0.0 4.8 0.00 0.00 0.00 77 1009.3
20260506073506 18 166 0.0 4.8 0.00 0.00 0.00 75 1009.5
20260506073004 18 118 0.0 0.0 0.00 0.00 0.00 75 1009.4
20260506072505 18 166 0.0 4.8 0.00 0.00 0.00 74 1009.4
20260506072008 18 204 0.0 3.2 0.00 0.00 0.00 74 1009.5
20260506071505 18 131 0.0 4.8 0.00 0.00 0.00 74 1009.5
20260506071005 18 134 0.0 12.9 0.00 0.00 0.00 74 1009.6
20260506070507 18 139 0.0 4.8 0.00 0.00 0.00 73 1009.6
20260506062505 18 300 0.0 4.8 0.00 0.00 0.00 71 1009.6
20260506061509 18 126 0.0 3.2 0.00 0.00 0.00 70 1009.6
20260506061006 19 154 0.0 6.4 0.00 0.00 0.00 70 1009.6
20260506060510 19 202 0.0 6.4 0.00 0.00 0.00 70 1009.5
20260506051006 19 181 1.6 6.4 0.00 0.00 0.00 67 1010.1
20260506050507 19 130 1.6 16.1 0.00 0.00 0.00 67 1010.1
20260506045004 20 264 0.0 6.4 0.00 0.00 0.00 66 1010.1
20260506044506 20 180 0.0 11.3 0.00 0.00 0.00 65 1010.0
20260506044004 20 114 0.0 8.0 0.00 0.00 0.00 65 1010.1
20260506043510 20 163 1.6 4.8 0.00 0.00 0.00 65 1010.1
20260506043004 20 232 0.0 4.8 0.00 0.00 0.00 64 1010.1
20260506042513 20 134 1.6 9.7 0.00 0.00 0.00 64 1010.1
20260506042010 20 197 0.0 4.8 0.00 0.00 0.00 64 1010.0
20260506041504 20 188 0.0 12.9 0.00 0.00 0.00 63 1010.0
20260506041004 20 137 0.0 6.4 0.00 0.00 0.00 63 1010.0
20260506040510 20 296 0.0 9.7 0.00 0.00 0.00 63 1010.0
20260506040005 20 179 0.0 11.3 0.00 0.00 0.00 62 1010.0
20260506035508 20 240 3.2 8.0 0.00 0.00 0.00 61 1009.9
20260506035007 20 277 0.0 11.3 0.00 0.00 0.00 61 1010.0
20260506034509 20 289 0.0 12.9 0.00 0.00 0.00 61 1010.1
20260506034013 20 135 1.6 8.0 0.00 0.00 0.00 60 1010.0
20260506033504 21 111 0.0 17.7 0.00 0.00 0.00 60 1010.0
20260506033005 21 157 1.6 11.3 0.00 0.00 0.00 59 1010.0
20260506032504 21 193 0.0 14.5 0.00 0.00 0.00 59 1010.0
20260506032007 21 147 3.2 11.3 0.00 0.00 0.00 58 1010.0
20260506031504 21 302 3.2 11.3 0.00 0.00 0.00 58 1009.9
20260506031004 21 85 0.0 4.8 0.00 0.00 0.00 58 1010.0
20260506030507 21 129 0.0 11.3 0.00 0.00 0.00 58 1010.0
20260506030007 21 270 0.0 14.5 0.00 0.00 0.00 57 1009.9
20260506025507 21 252 6.4 12.9 0.00 0.00 0.00 57 1009.9
20260506025010 21 126 0.0 12.9 0.00 0.00 0.00 57 1009.9
20260506024504 21 246 0.0 11.3 0.00 0.00 0.00 56 1010.0
20260506024005 21 124 6.4 14.5 0.00 0.00 0.00 56 1010.0
20260506023504 21 138 0.0 4.8 0.00 0.00 0.00 56 1010.0
20260506023004 21 301 0.0 6.4 0.00 0.00 0.00 56 1009.9
20260506022505 21 264 1.6 14.5 0.00 0.00 0.00 56 1009.8
20260506022007 21 167 1.6 11.3 0.00 0.00 0.00 56 1009.8
20260506021511 21 166 0.0 8.0 0.00 0.00 0.00 55 1009.8
20260506021004 22 154 0.0 17.7 0.00 0.00 0.00 55 1009.9
20260506020507 22 185 1.6 11.3 0.00 0.00 0.00 55 1009.8
20260506020004 22 113 0.0 16.1 0.00 0.00 0.00 55 1009.7
20260506015507 22 171 1.6 11.3 0.00 0.00 0.00 55 1009.7
20260506015004 22 295 8.0 16.1 0.00 0.00 0.00 54 1009.7
20260506014504 22 94 1.6 9.7 0.00 0.00 0.00 53 1009.7
20260506014007 22 209 1.6 12.9 0.00 0.00 0.00 52 1009.7
20260506013504 22 179 3.2 4.8 0.00 0.00 0.00 51 1009.6
20260506013007 23 174 3.2 16.1 0.00 0.00 0.00 50 1009.5
20260506012507 23 289 1.6 12.9 0.00 0.00 0.00 49 1009.5
20260506012010 23 148 4.8 16.1 0.00 0.00 0.00 47 1009.5
20260506011510 23 130 3.2 11.3 0.00 0.00 0.00 45 1009.2
20260506011004 24 133 1.6 14.5 0.00 0.00 0.00 44 1009.1
20260506010510 24 171 1.6 17.7 0.00 0.00 0.00 44 1009.1
20260506010007 24 137 3.2 12.9 0.00 0.00 0.00 43 1009.0
20260506005505 24 121 0.0 12.9 0.00 0.00 0.00 42 1008.9
20260506005004 25 236 1.6 11.3 0.00 0.00 0.00 42 1008.8
20260506004509 25 288 0.0 8.0 0.00 0.00 0.00 41 1008.9
20260506004004 25 160 0.0 16.1 0.00 0.00 0.00 41 1008.9
20260506003504 25 121 0.0 6.4 0.00 0.00 0.00 40 1008.7
20260506003004 25 312 1.6 14.5 0.00 0.00 0.00 40 1008.8
20260506002504 25 345 1.6 12.9 0.00 0.00 0.00 40 1008.7
20260506002007 25 127 0.0 14.5 0.00 0.00 0.00 39 1008.7
20260506001504 25 133 1.6 17.7 0.00 0.00 0.00 39 1008.6
20260506001007 25 287 4.8 9.7 0.00 0.00 0.00 39 1008.5
20260506000508 26 48 0.0 16.1 0.00 0.00 0.00 38 1008.5
20260506000007 26 209 3.2 11.3 0.00 0.00 0.00 37 1008.6
20260505235507 26 264 0.0 14.5 0.00 0.00 0.00 36 1008.5
20260505235004 26 249 0.0 12.9 0.00 0.00 0.00 35 1008.5
20260505234507 26 274 0.0 12.9 0.00 0.00 0.00 34 1008.2
20260505234004 26 300 3.2 9.7 0.00 0.00 0.00 33 1008.1
20260505233505 26 323 0.0 12.9 0.00 0.00 0.00 33 1008.1
20260505233007 26 256 0.0 17.7 0.00 0.00 0.00 33 1008.0
20260505232507 26 293 8.0 19.3 0.00 0.00 0.00 32 1007.8
20260505232004 26 254 8.0 9.7 0.00 0.00 0.00 32 1007.8
20260505231513 26 60 0.0 16.1 0.00 0.00 0.00 32 1007.8
20260505231004 26 142 9.7 12.9 0.00 0.00 0.00 32 1007.7
20260505230504 27 281 0.0 20.9 0.00 0.00 0.00 31 1007.6
20260505230007 27 254 3.2 14.5 0.00 0.00 0.00 31 1007.7
20260505225505 27 233 0.0 16.1 0.00 0.00 0.00 30 1007.5
20260505225007 27 108 0.0 19.3 0.00 0.00 0.00 30 1007.5
20260505224504 27 185 0.0 12.9 0.00 0.00 0.00 29 1007.6
20260505224004 27 262 3.2 16.1 0.00 0.00 0.00 29 1007.6
20260505223504 27 295 0.0 12.9 0.00 0.00 0.00 29 1007.5
20260505223004 27 249 0.0 11.3 0.00 0.00 0.00 29 1007.6
20260505222510 27 271 6.4 14.5 0.00 0.00 0.00 28 1007.6
20260505222004 27 137 1.6 19.3 0.00 0.00 0.00 28 1007.4
20260505221507 27 301 3.2 20.9 0.00 0.00 0.00 28 1007.4
20260505221004 28 283 1.6 19.3 0.00 0.00 0.00 27 1007.5
20260505220504 28 275 6.4 32.2 0.00 0.00 0.00 27 1007.2
20260505220014 28 264 1.6 20.9 0.00 0.00 0.00 28 1007.3
20260505215507 28 126 6.4 17.7 0.00 0.00 0.00 27 1007.0
20260505215007 28 304 4.8 14.5 0.00 0.00 0.00 28 1007.0
20260505214507 28 270 9.7 11.3 0.00 0.00 0.00 28 1006.9
20260505214004 28 242 1.6 12.9 0.00 0.00 0.00 29 1007.1
20260505213510 28 255 6.4 17.7 0.00 0.00 0.00 29 1007.0
20260505213007 28 220 11.3 19.3 0.00 0.00 0.00 30 1007.0
20260505212504 28 158 0.0 17.7 0.00 0.00 0.00 30 1007.0
20260505212004 28 6 1.6 19.3 0.00 0.00 0.00 29 1006.9
20260505211510 28 243 9.7 16.1 0.00 0.00 0.00 29 1007.0
20260505211013 28 314 6.4 16.1 0.00 0.00 0.00 29 1007.0
20260505210505 28 278 4.8 14.5 0.00 0.00 0.00 29 1007.1
20260505210008 28 148 1.6 20.9 0.00 0.00 0.00 29 1006.9
20260505205507 28 288 0.0 22.5 0.00 0.00 0.00 30 1006.9
20260505205007 28 276 3.2 24.1 0.00 0.00 0.00 29 1006.9
20260505204504 28 297 4.8 19.3 0.00 0.00 0.00 28 1007.0
20260505204004 28 267 8.0 29.0 0.00 0.00 0.00 29 1007.0
20260505203504 28 291 14.5 22.5 0.00 0.00 0.00 31 1007.0
20260505203011 28 154 3.2 19.3 0.00 0.00 0.00 31 1007.0
20260505202504 28 102 0.0 19.3 0.00 0.00 0.00 31 1006.9
20260505202004 29 199 0.0 17.7 0.00 0.00 0.00 30 1007.1
20260505201505 29 133 3.2 12.9 0.00 0.00 0.00 30 1007.0
20260505201004 28 295 3.2 20.9 0.00 0.00 0.00 31 1007.0
20260505200504 28 59 1.6 14.5 0.00 0.00 0.00 31 1007.2
20260505200004 29 356 4.8 19.3 0.00 0.00 0.00 30 1007.4
20260505195505 29 126 9.7 19.3 0.00 0.00 0.00 30 1007.2
20260505195004 29 239 4.8 17.7 0.00 0.00 0.00 31 1007.2
20260505194507 28 337 0.0 17.7 0.00 0.00 0.00 31 1007.5
20260505194010 28 13 1.6 19.3 0.00 0.00 0.00 31 1007.5
20260505193506 29 181 12.9 27.4 0.00 0.00 0.00 30 1007.6
20260505193004 29 135 3.2 14.5 0.00 0.00 0.00 31 1007.6
20260505192505 29 143 4.8 16.1 0.00 0.00 0.00 31 1007.8
20260505192007 29 24 1.6 16.1 0.00 0.00 0.00 30 1007.9
20260505191504 29 125 1.6 16.1 0.00 0.00 0.00 32 1007.8
20260505191008 28 135 1.6 22.5 0.00 0.00 0.00 31 1007.9
20260505190505 28 10 0.0 17.7 0.00 0.00 0.00 31 1008.1
20260505190005 28 58 0.0 19.3 0.00 0.00 0.00 31 1008.1
20260505185507 28 145 1.6 14.5 0.00 0.00 0.00 32 1008.2
20260505185004 29 270 4.8 14.5 0.00 0.00 0.00 32 1008.4
20260505184507 29 357 0.0 16.1 0.00 0.00 0.00 32 1008.4
20260505184008 29 156 11.3 16.1 0.00 0.00 0.00 33 1008.5
20260505183504 28 216 1.6 11.3 0.00 0.00 0.00 34 1008.5
20260505183011 28 60 3.2 19.3 0.00 0.00 0.00 34 1008.7
20260505182507 28 149 9.7 19.3 0.00 0.00 0.00 36 1008.5
20260505182004 28 247 3.2 12.9 0.00 0.00 0.00 34 1008.6
20260505181511 28 216 8.0 16.1 0.00 0.00 0.00 35 1008.7
20260505181013 28 158 6.4 20.9 0.00 0.00 0.00 35 1008.7
20260505180507 28 104 12.9 19.3 0.00 0.00 0.00 36 1008.7
20260505180010 28 126 3.2 12.9 0.00 0.00 0.00 36 1008.7
20260505175504 28 186 11.3 12.9 0.00 0.00 0.00 36 1008.9
20260505175007 28 171 1.6 16.1 0.00 0.00 0.00 37 1008.9
20260505174505 28 212 0.0 4.8 0.00 0.00 0.00 38 1008.8
20260505174007 28 20 1.6 12.9 0.00 0.00 0.00 37 1008.8
20260505173504 28 138 0.0 14.5 0.00 0.00 0.00 38 1009.0
20260505173007 28 115 1.6 12.9 0.00 0.00 0.00 39 1009.0
20260505172510 27 54 0.0 11.3 0.00 0.00 0.00 40 1009.0
20260505172004 28 131 1.6 19.3 0.00 0.00 0.00 38 1009.2
20260505171504 28 256 0.0 14.5 0.00 0.00 0.00 39 1009.0
20260505171004 28 222 0.0 11.3 0.00 0.00 0.00 39 1009.1
20260505170511 27 258 4.8 8.0 0.00 0.00 0.00 40 1009.1
20260505170007 27 162 0.0 11.3 0.00 0.00 0.00 39 1009.2
20260505165507 27 317 0.0 6.4 0.00 0.00 0.00 39 1009.2
20260505165005 27 195 4.8 17.7 0.00 0.00 0.00 39 1009.3
20260505164507 27 196 3.2 12.9 0.00 0.00 0.00 40 1009.4
20260505164011 27 284 0.0 8.0 0.00 0.00 0.00 39 1009.4
20260505163504 27 235 0.0 8.0 0.00 0.00 0.00 40 1009.5
20260505163010 27 251 0.0 9.7 0.00 0.00 0.00 41 1009.6